Weather Roundup
Issued by NWS Chicago, IL

Home | Current Version | Previous Version | Graphics & Text | Print | Product List | Glossary On
Versions: 1 2 3 4 5 6 7 8 9 10 11 12 13 14 15 16 17 18 19 20 21 22 23 24 25 26 27 28 29 30 31 32 33 34 35 36 37 38 39 40 41 42 43 44 45 46 47 48 49 50
000
NZUS59 KLOT 030102
HRRLOT

CHICAGO AREA WEATHER ROUNDUP
NATIONAL WEATHER SERVICE CHICAGO/ROMEOVILLE IL
800 PM CDT WED SEP 02 2015

NOTE: "FAIR" INDICATES FEW OR NO CLOUDS BELOW 12,000 FEET WITH NO
SIGNIFICANT WEATHER AND/OR OBSTRUCTIONS TO VISIBILITY.

* THESE STATIONS ARE NOT UNDER NWS QUALITY CONTROL. THEY ALSO MAY NOT
  REPORT WEATHER SUCH AS PRECIPITATION OR FOG.

ILZ005-006-012>014-019>023-030200-
NORTHEAST ILLINOIS

CITY           SKY/WX    TMP DP  RH WIND       PRES   REMARKS
OHARE          MOCLDY    83  66  56 SW5       29.95F HX  85
MIDWAY         MOCLDY    85  67  54 SW6       29.96R HX  87
AURORA         MOCLDY    78  70  76 S5        29.97S HX  80
LANSING*       PTCLDY    78  69  75 S6        29.97S
WAUKEGAN       CLOUDY    76  70  82 S6        29.94S
DUPAGE AIRPORT MOCLDY    78  69  73 S3        29.96S HX  80
WHEELING       MOCLDY    83  66  56 S6        29.96S HX  85
NORTHERLY IS     N/A     84  63  49 W2          N/A  HX  85
$$

WIZ051-052-058>065-066-070>072-030200-
SOUTHEAST WISCONSIN

CITY           SKY/WX    TMP DP  RH WIND       PRES   REMARKS
MILWAUKEE      PTCLDY    81  69  67 S6        29.92F HX  84
KENOSHA*       MOCLDY    80  70  71 CALM      29.94F HX  83
RACINE*        MOCLDY    79  69  71 S6        29.95F HX  81
WAUKESHA       CLEAR     79  68  69 S3        29.94F HX  81
$$

INZ001>003-010>013-019-020-030200-
NORTHWEST INDIANA

CITY           SKY/WX    TMP DP  RH WIND       PRES   REMARKS
GARY*          MOCLDY    81  68  65 SW6       29.97R HX  83
MICHIGAN CITY* NOT AVBL
RENSSELAER*    NOT AVBL
$$

LMZ740>746-030200-
SOUTHERN LAKE MICHIGAN

STATION/POSITION TIME  SKY/WX   TEMP WIND        PRES    VSBY
                                AIR  DIR/SP/G
                 (UTC)          (F)  (DEG/KT/KT) (MB)    (MI)
HARRISON CRIB    0000            85  240/  8/ 10   N/A
BURNHAM HARBOR   0100            85  220/  3/ 10   N/A
CALUMET HARBOR   0000            86  210/  4/  6   N/A
BURNS HARBOR     0000            83  230/  6/  9 1014.9S
MICHIGAN CITY    0000            79   70/  3/  4   N/A
$$

ABBREVIATIONS USED IN REMARKS
   TC - TEMPERATURE IN CELSIUS
  WCI - WIND CHILL INDEX
   HX - HEAT INDEX
  VSB - VISIBILITY
$$


USA.gov is the U.S. government's official web portal to all federal, state and local government web resources and services.